Shelbyville, IN

2:40 AM EST on February 10, 2016 (GMT -0500)
Shelbyville Municipal

Weather History for KGEZ - January, 2014

Change the Weather History Date:

Friday, January 31, 2014

  Actual Average Record
Temperature  
Mean Temperature 34 °F 29 °F  
Max Temperature 36 °F 37 °F 62 °F (2002)
Min Temperature 31 °F 22 °F -9 °F (2004)
Degree Days  
Heating Degree Days 31 36  
Month to date heating degree days 1287 1116  
Since 1 July heating degree days 3366 3229  
Cooling Degree Days 0 0  
Month to date cooling degree days 0 0  
Year to date cooling degree days 0 0  
Moisture  
Dew Point 23 °F    
Average Humidity 62    
Maximum Humidity 82    
Minimum Humidity 41    
Precipitation  
Precipitation 0.02 in 0.06 in 0.88 in (2002)
Month to date precipitation 2.03 2.39  
Year to date precipitation 2.03 2.39  
Sea Level Pressure  
Sea Level Pressure 30.09 in    
Wind  
Wind Speed 7 mph (SE)    
Max Wind Speed 13 mph    
Max Gust Speed 16 mph    
Visibility 9 miles    
Events Snow    
T = Trace of Precipitation, MM = Missing Value Source: NWS Daily Summary

Daily Weather History Graph

Daily Weather History Graph

Search for Another Location

Airport or City:

Trip Planner

Search our weather history database for the weather conditions in past years. The results will help you decide how hot, cold, wet, or windy it might be!

Date:

Astronomy

Jan. 31, 2014 Rise Set
Actual Time 7:51 AM EST 6:02 PM EST
Civil Twilight 7:23 AM EST 6:30 PM EST
Nautical Twilight 6:50 AM EST 7:02 PM EST
Astronomical Twilight 6:19 AM EST 7:34 PM EST
Moon 8:01 AM EST (1/31) 7:25 PM EST (1/31)
Length of Visible Light 11h 07m
Length of Day
10h 10m
New Moon, 1% of the Moon is Illuminated
Jan 31
New Moon
Feb 6
First Quarter
Feb 14
Full
Feb 22
Last Quarter
Mar 1
New

Hourly Weather History & Observations

Time (EST) Temp. Windchill Dew Point Humidity Pressure Visibility Wind Dir Wind Speed Gust Speed Precip Events Conditions
12:53 AM 34.0 °F 26.6 °F 12.9 °F 42% 30.00 in 10.0 mi SSW 9.2 mph - N/A   Overcast
1:53 AM 34.0 °F 26.0 °F 14.0 °F 44% 30.00 in 10.0 mi SW 10.4 mph - N/A   Overcast
2:53 AM 34.0 °F 27.2 °F 16.0 °F 48% 30.01 in 10.0 mi SW 8.1 mph - N/A   Overcast
3:53 AM 32.0 °F 26.4 °F 17.1 °F 54% 30.01 in 10.0 mi South 5.8 mph - N/A   Overcast
4:53 AM 32.0 °F 25.6 °F 15.1 °F 50% 30.03 in 10.0 mi South 6.9 mph - N/A   Clear
5:53 AM 30.9 °F 24.3 °F 18.0 °F 59% 30.06 in 10.0 mi SSW 6.9 mph - N/A   Overcast
6:53 AM 30.9 °F 23.5 °F 18.0 °F 59% 30.06 in 10.0 mi South 8.1 mph - N/A   Overcast
7:53 AM 33.1 °F 25.5 °F 15.1 °F 48% 30.08 in 10.0 mi South 9.2 mph - N/A   Overcast
8:53 AM 33.1 °F 25.5 °F 16.0 °F 50% 30.11 in 10.0 mi South 9.2 mph - N/A   Overcast
9:53 AM 35.1 °F 28.6 °F 19.0 °F 52% 30.12 in 10.0 mi South 8.1 mph - N/A   Overcast
10:53 AM 34.0 °F 28.0 °F 23.0 °F 64% 30.14 in 8.0 mi SW 6.9 mph - N/A   Overcast
11:29 AM 33.1 °F 27.7 °F 25.0 °F 72% 30.12 in 6.0 mi SW 5.8 mph - 0.00 in   Haze
11:53 AM 33.1 °F 30.0 °F 25.0 °F 72% 30.14 in 10.0 mi WSW 3.5 mph - 0.00 in   Overcast
12:53 PM 34.0 °F - 26.1 °F 73% 30.12 in 10.0 mi Calm Calm - 0.00 in   Overcast
1:03 PM 34.0 °F 31.0 °F 26.1 °F 73% 30.11 in 10.0 mi NNW 3.5 mph - N/A   Overcast
1:53 PM 35.1 °F 32.2 °F 26.1 °F 70% 30.12 in 10.0 mi North 3.5 mph - N/A   Overcast
2:53 PM 35.1 °F 31.0 °F 26.1 °F 70% 30.12 in 10.0 mi NE 4.6 mph - N/A   Overcast
3:53 PM 36.0 °F 31.1 °F 26.1 °F 67% 30.12 in 10.0 mi NE 5.8 mph - N/A   Mostly Cloudy
4:53 PM 35.1 °F 29.3 °F 27.0 °F 72% 30.12 in 10.0 mi ENE 6.9 mph - N/A   Mostly Cloudy
5:53 PM 35.1 °F 29.3 °F 27.0 °F 72% 30.11 in 10.0 mi ENE 6.9 mph - N/A   Mostly Cloudy
6:53 PM 35.1 °F 30.1 °F 26.1 °F 70% 30.12 in 10.0 mi ENE 5.8 mph - N/A   Overcast
7:53 PM 34.0 °F 27.2 °F 27.0 °F 75% 30.11 in 10.0 mi ENE 8.1 mph - N/A   Overcast
8:53 PM 35.1 °F 27.9 °F 27.0 °F 72% 30.11 in 10.0 mi East 9.2 mph - N/A   Overcast
9:53 PM 35.1 °F 30.1 °F 27.0 °F 72% 30.09 in 9.0 mi ESE 5.8 mph - 0.00 in Snow Light Snow
10:53 PM 34.0 °F 29.8 °F 28.9 °F 82% 30.09 in 3.0 mi East 4.6 mph - 0.00 in Snow Light Snow
11:38 PM 33.1 °F 27.7 °F 30.0 °F 89% 30.06 in 5.0 mi NNE 5.8 mph - 0.02 in   Overcast
11:53 PM 33.1 °F 28.7 °F 30.0 °F 89% 30.08 in 5.0 mi NE 4.6 mph - 0.02 in   Overcast